Location: Bear Trap Landing
(45.2437°N, 67.7928°W)
Time: 17:00:58
(UTC+00:00)

ISS - Pass Details

Date: 11 March 2021
Orbit: 418 x 421 km, 51.6° (Epoch: 21 April)

Event Time Altitude Azimuth Distance (km) Brightness Sun altitude
Exits shadow 08:38:07 37° 103° (ESE) 671 -2.4 -23.8°
Drops below altitude 10° 08:40:17 10° 113° (ESE) 1,494 -0.4 -23.4°
Sets 08:42:23 0° 115° (ESE) 2,355 0.7 -23.1°
